D3121 Weather Reports


Display with metric or nautical units.
time (UTC)temp
F
wind
direction
speed
MPH
gust
MPH
rain 1hr
in
rain 24hr
in
rain mn
in
humidity
%
barometer
mb
20260503222117 47 225 1.0 3.0 0.00 0.00 0.00 53 1006.5
20260503221116 47 293 3.0 5.0 0.00 0.00 0.00 53 1006.4
20260503220116 47 0 4.0 8.0 0.00 0.00 0.00 53 1006.3
20260503215116 47 293 4.0 6.0 0.00 0.01 0.00 52 1006.2
20260503214116 47 338 6.0 9.0 0.00 0.01 0.00 50 1006.2
20260503213157 47 315 1.0 3.0 0.00 0.01 0.00 51 1006.2
20260503212116 47 293 3.0 7.0 0.00 0.01 0.00 50 1006.1
20260503211217 47 315 7.0 15.0 0.00 0.01 0.00 49 1006.1
20260503210116 48 338 5.0 8.0 0.00 0.01 0.00 50 1006.0
20260503205116 48 315 6.0 15.0 0.00 0.01 0.00 48 1006.0
20260503204117 48 225 3.0 9.0 0.00 0.01 0.00 49 1006.0
20260503203116 48 338 7.0 11.0 0.00 0.01 0.00 48 1005.9
20260503202157 48 338 4.0 7.0 0.00 0.01 0.00 48 1005.7
20260503201116 48 315 5.0 12.0 0.00 0.01 0.00 46 1005.6
20260503200116 48 248 5.0 13.0 0.00 0.02 0.00 48 1005.7
20260503195117 47 270 4.0 9.0 0.00 0.03 0.00 50 1005.6
20260503194116 47 315 4.0 10.0 0.00 0.04 0.00 46 1005.6
20260503193117 48 270 3.0 6.0 0.00 0.04 0.00 47 1005.7
20260503192116 48 270 6.0 12.0 0.00 0.05 0.00 46 1005.8
20260503191117 47 293 6.0 16.0 0.00 0.07 0.00 49 1005.8
20260503190137 47 293 8.0 16.0 0.00 0.08 0.00 48 1005.9
20260503185117 47 315 3.0 5.0 0.00 0.08 0.00 47 1005.9
20260503184116 47 338 6.0 10.0 0.00 0.08 0.00 46 1005.7
20260503183116 48 315 6.0 11.0 0.00 0.08 0.00 45 1005.8
20260503182136 48 338 7.0 9.0 0.00 0.08 0.00 47 1005.7
20260503181116 48 0 3.0 5.0 0.00 0.08 0.00 48 1005.7
20260503180116 48 338 8.0 14.0 0.00 0.08 0.00 47 1005.6
20260503175116 47 338 11.0 16.0 0.00 0.08 0.00 47 1005.5
20260503174116 48 338 7.0 13.0 0.00 0.08 0.00 47 1005.6
20260503173116 47 293 5.0 10.0 0.00 0.08 0.00 51 1005.6
20260503172116 47 315 4.0 11.0 0.00 0.08 0.00 52 1005.6
20260503171116 47 338 10.0 16.0 0.00 0.09 0.00 53 1005.6
20260503170116 47 338 7.0 9.0 0.00 0.13 0.00 52 1005.7
20260503160136 45 338 6.0 13.0 0.00 0.14 0.00 61 1005.9
20260503150116 44 248 4.0 24.0 0.00 0.17 0.00 67 1006.0
20260503140116 42 23 10.0 17.0 0.00 0.18 0.00 79 1006.4
20260503131116 41 23 6.0 13.0 0.00 0.19 0.00 85 1006.8
20260503130116 40 23 8.0 13.0 0.00 0.19 0.00 85 1006.7
20260503120116 39 0 7.0 13.0 0.00 0.20 0.00 88 1006.7
20260503110116 39 270 3.0 6.0 0.00 0.20 0.00 89 1006.8
20260503100136 39 0 4.0 6.0 0.00 0.20 0.00 90 1006.6
20260503090116 38 293 1.0 4.0 0.00 0.20 0.00 91 1006.9
20260503081118 38 0.0 0.0 0.00 0.24 0.00 92 1007.4
20260503080116 38 248 1.0 2.0 0.00 0.24 0.00 92 1007.5
20260503072116 38 0.0 1.0 0.00 0.25 0.00 92 1007.7
20260503071116 38 0.0 0.0 0.00 0.25 0.00 92 1007.9
20260503070116 38 0.0 1.0 0.00 0.25 0.00 92 1008.1
20260503060116 39 0.0 0.0 0.00 0.31 0.00 91 1008.6
20260503054116 39 0.0 1.0 0.00 0.32 0.00 91 1008.6
20260503053116 39 0.0 0.0 0.00 0.32 0.00 91 1008.7
20260503052136 39 293 1.0 2.0 0.00 0.32 0.00 91 1008.7
20260503051116 39 0.0 1.0 0.00 0.32 0.00 91 1008.8
20260503050116 39 225 1.0 2.0 0.00 0.32 0.00 92 1008.8
20260503045116 39 0.0 0.0 0.00 0.32 0.00 92 1009.0
20260503044156 39 0.0 0.0 0.00 0.32 0.00 92 1009.0
20260503043116 39 293 1.0 2.0 0.00 0.32 0.00 91 1009.2
20260503042116 40 0.0 0.0 0.00 0.32 0.00 91 1009.3
20260503041116 40 0.0 0.0 0.00 0.32 0.00 91 1009.4
20260503040116 40 0.0 0.0 0.00 0.32 0.00 91 1009.5
20260503035117 40 0.0 2.0 0.00 0.32 0.32 90 1009.4
20260503034117 40 0.0 1.0 0.00 0.32 0.32 91 1009.7
20260503033118 40 315 2.0 3.0 0.00 0.32 0.32 91 1009.6
20260503032117 40 225 1.0 3.0 0.00 0.32 0.32 91 1009.7
20260503031117 41 270 1.0 2.0 0.00 0.32 0.32 92 1009.8
20260503030117 41 338 2.0 3.0 0.00 0.32 0.32 92 1009.9
20260503025117 41 0.0 0.0 0.00 0.32 0.32 92 1009.9
20260503024117 41 0.0 1.0 0.00 0.32 0.32 92 1010.1
20260503023137 41 0.0 0.0 0.00 0.32 0.32 92 1010.2
20260503022117 42 0.0 1.0 0.00 0.32 0.32 92 1010.2
20260503021117 42 0.0 1.0 0.00 0.32 0.32 91 1010.2
20260503020117 43 0.0 0.0 0.00 0.32 0.32 91 1010.2
20260503015117 43 45 1.0 1.0 0.00 0.32 0.32 91 1010.2
20260503014137 43 0 2.0 5.0 0.00 0.32 0.32 91 1010.2
20260503013117 44 23 2.0 5.0 0.00 0.32 0.32 90 1010.2
20260503012117 44 0 4.0 9.0 0.00 0.32 0.32 90 1010.1
20260503011118 45 23 5.0 10.0 0.00 0.32 0.32 94 1010.1
20260503010117 45 0.0 0.0 0.00 0.32 0.32 94 1009.8
20260503005117 45 338 1.0 2.0 0.00 0.32 0.32 94 1009.7
20260503004117 45 338 2.0 2.0 0.00 0.32 0.32 93 1009.6
20260503003117 46 293 1.0 2.0 0.00 0.32 0.32 93 1009.4
20260503002117 46 0.0 1.0 0.00 0.32 0.32 93 1009.5
20260503001117 46 135 2.0 4.0 0.00 0.32 0.32 93 1009.3
20260503000117 46 0.0 2.0 0.00 0.32 0.32 92 1009.3
20260502235117 46 158 3.0 4.0 0.00 0.32 0.32 92 1009.2
20260502234117 46 158 3.0 5.0 0.00 0.32 0.32 92 1009.2
20260502233117 46 0.0 0.0 0.00 0.32 0.32 91 1009.2
20260502232137 46 158 1.0 2.0 0.00 0.32 0.32 90 1009.1
20260502231117 46 135 5.0 5.0 0.00 0.32 0.32 90 1009.1
20260502230117 46 135 3.0 5.0 0.00 0.32 0.32 90 1009.1
20260502225137 47 68 1.0 1.0 0.01 0.32 0.32 91 1009.0
20260502224117 47 68 1.0 2.0 0.01 0.32 0.32 91 1009.0
20260502223217 47 158 1.0 2.0 0.01 0.32 0.32 91 1008.9